Nenana, AK

8:26 PM AKDT on April 25, 2018 (GMT -0800)
Nenana Municipal

Weather History for PANN - June, 2013

Change the Weather History Date:

Friday, June 14, 2013

  Actual Average Record
Temperature  
Mean Temperature 66 °F -  
Max Temperature 82 °F 75 °F 85 °F (2002)
Min Temperature 50 °F 48 °F 41 °F (1973)
Cooling Degree Days 1    
Growing Degree Days 16 (Base 50)    
Moisture  
Dew Point 39 °F    
Average Humidity 44    
Maximum Humidity 86    
Minimum Humidity 14    
Precipitation  
Precipitation 0.00 in - - ()
Sea Level Pressure  
Sea Level Pressure 30.15 in    
Wind  
Wind Speed 1 mph (SW)    
Max Wind Speed 8 mph    
Max Gust Speed -    
Visibility 10 miles    
Events      
Averages and records for this station are not official NWS values.
T = Trace of Precipitation, MM = Missing Value Source: NWS Daily Summary

Daily Weather History Graph

Daily Weather History Graph

Search for Another Location

Airport or City:

Astronomy

Jun. 14, 2013 Rise Set
Actual Time 3:15 AM AKDT 12:38 AM AKDT
Civil Twilight Sun does not set Sun does not set
Nautical Twilight Sun does not set Sun does not set
Astronomical Twilight Sun does not set Sun does not set
Moon 11:38 AM AKDT (6/14) 1:19 AM AKDT (6/14)
Length of Visible Light 24h 00m
Length of Day
21h 22m
Waxing Crescent, 31% of the Moon is Illuminated
Jun 14
Waxing Crescent
Jun 16
First Quarter
Jun 23
Full
Jun 29
Last Quarter
Jul 7
New

Hourly Weather History & Observations

Time (AKDT) Temp. Dew Point Humidity Pressure Visibility Wind Dir Wind Speed Gust Speed Precip Events Conditions
12:53 AM 53.1 °F 46.0 °F 77% 30.09 in 10.0 mi Calm Calm - N/A   Clear
1:53 AM 52.0 °F 44.1 °F 74% 30.11 in 10.0 mi Calm Calm - N/A   Clear
2:53 AM 48.0 °F 44.1 °F 86% 30.11 in 10.0 mi Calm Calm - N/A   Clear
3:53 AM 48.0 °F 42.1 °F 80% 30.12 in 10.0 mi South 5.8 mph - N/A   Clear
4:53 AM 46.9 °F 41.0 °F 80% 30.13 in 10.0 mi Calm Calm - N/A   Clear
5:53 AM 51.1 °F 43.0 °F 74% 30.14 in 10.0 mi Calm Calm - N/A   Clear
6:53 AM 55.9 °F 39.0 °F 53% 30.15 in 10.0 mi Calm Calm - N/A   Clear
7:53 AM 60.1 °F 39.9 °F 47% 30.17 in 10.0 mi Calm Calm - N/A   Clear
8:53 AM 64.9 °F 41.0 °F 42% 30.17 in 10.0 mi Calm Calm - N/A   Clear
9:53 AM 69.1 °F 39.0 °F 33% 30.17 in 10.0 mi Calm Calm - N/A   Clear
10:53 AM 72.0 °F 39.0 °F 30% 30.17 in 10.0 mi Calm Calm - N/A   Clear
11:53 AM 75.0 °F 41.0 °F 29% 30.16 in 10.0 mi Calm Calm - N/A   Clear
12:53 PM 78.1 °F 33.1 °F 19% 30.16 in 10.0 mi Calm Calm - N/A   Clear
1:53 PM 78.1 °F 28.0 °F 16% 30.16 in 10.0 mi Calm Calm - N/A   Clear
2:53 PM 79.0 °F 30.0 °F 17% 30.15 in 10.0 mi Calm Calm - N/A   Clear
3:53 PM 81.0 °F 27.0 °F 14% 30.14 in 10.0 mi Calm Calm - N/A   Clear
4:53 PM 80.1 °F 27.0 °F 14% 30.14 in 10.0 mi SW 8.1 mph - N/A   Clear
5:53 PM 81.0 °F 28.0 °F 14% 30.13 in 10.0 mi Calm Calm - N/A   Clear
6:53 PM 82.0 °F 32.0 °F 16% 30.12 in 10.0 mi Calm Calm - N/A   Clear
7:53 PM 81.0 °F 28.0 °F 14% 30.13 in 10.0 mi West 3.5 mph - N/A   Clear
8:53 PM 79.0 °F 33.1 °F 19% 30.13 in 10.0 mi Calm Calm - N/A   Clear
9:53 PM 73.0 °F 43.0 °F 34% 30.14 in 10.0 mi Calm Calm - N/A   Clear
10:53 PM 66.0 °F 45.0 °F 47% 30.15 in 10.0 mi Calm Calm - N/A   Clear
11:53 PM 60.1 °F 46.9 °F 62% 30.17 in 10.0 mi Calm Calm - N/A   Clear